Time,TemperatureF,DewpointF,PressureIn,WindDirection,WindDirectionDegrees,WindSpeedMPH,WindSpeedGustMPH,Humidity,HourlyPrecipIn,Conditions,Clouds,dailyrainin,SoftwareType,DateUTC
2013-02-08 00:02:00,72.0,70.0,30.01,South,189,0.0,0.0,92,0.00,,,0.00,,2013-02-08 05:02:00,
2013-02-08 00:12:00,72.0,70.0,30.01,South,189,0.0,0.0,92,0.00,,,0.00,,2013-02-08 05:12:00,
2013-02-08 00:22:00,72.0,70.0,30.01,South,189,0.0,3.0,92,0.00,,,0.00,,2013-02-08 05:22:00,
2013-02-08 00:32:00,72.0,70.0,30.01,South,189,2.0,3.0,92,0.00,,,0.00,,2013-02-08 05:32:00,
2013-02-08 00:42:00,72.0,70.0,30.01,South,189,2.0,3.0,92,0.00,,,0.00,,2013-02-08 05:42:00,
2013-02-08 00:52:00,72.0,70.0,30.00,SSW,194,0.0,0.0,92,0.00,,,0.00,,2013-02-08 05:52:00,
2013-02-08 01:01:00,72.0,70.0,29.98,SSW,198,3.0,5.0,92,0.00,,,0.00,,2013-02-08 06:01:00,
2013-02-08 01:11:00,72.0,70.0,29.98,SSW,198,3.0,5.0,92,0.00,,,0.00,,2013-02-08 06:11:00,
2013-02-08 01:21:00,72.0,70.0,29.98,SW,216,4.0,6.0,92,0.00,,,0.00,,2013-02-08 06:21:00,
2013-02-08 01:32:00,72.0,70.0,29.97,SW,217,2.0,5.0,92,0.00,,,0.00,,2013-02-08 06:32:00,
2013-02-08 01:42:00,72.0,70.0,29.97,SW,217,2.0,5.0,92,0.00,,,0.00,,2013-02-08 06:42:00,
2013-02-08 01:52:00,72.0,70.0,29.97,SW,223,2.0,5.0,92,0.00,,,0.00,,2013-02-08 06:52:00,
2013-02-08 02:01:00,72.0,70.0,29.97,SW,218,3.0,5.0,92,0.00,,,0.00,,2013-02-08 07:01:00,
2013-02-08 02:11:00,73.0,71.0,29.96,SW,229,3.0,7.0,92,0.00,,,0.00,,2013-02-08 07:11:00,
2013-02-08 02:21:00,73.0,71.0,29.96,SW,229,3.0,7.0,92,0.00,,,0.00,,2013-02-08 07:21:00,
2013-02-08 02:32:00,73.0,71.0,26.41,SW,225,8.0,10.0,92,0.00,,,0.00,,2013-02-08 07:32:00,
2013-02-08 02:42:00,73.0,70.0,29.95,SSW,213,5.0,10.0,91,0.00,,,0.00,,2013-02-08 07:42:00,
2013-02-08 02:52:00,73.0,70.0,29.95,SSW,213,5.0,10.0,91,0.00,,,0.00,,2013-02-08 07:52:00,
2013-02-08 03:01:00,73.0,70.0,29.94,SW,235,6.0,10.0,90,0.00,,,0.00,,2013-02-08 08:01:00,
2013-02-08 03:11:00,73.0,70.0,26.42,SW,233,6.0,9.0,91,0.00,,,0.00,,2013-02-08 08:11:00,
2013-02-08 03:21:00,73.0,70.0,26.42,SW,233,6.0,9.0,91,0.00,,,0.00,,2013-02-08 08:21:00,
2013-02-08 03:32:00,73.0,70.0,26.41,SW,236,7.0,10.0,90,0.00,,,0.00,,2013-02-08 08:32:00,
2013-02-08 03:42:00,73.0,70.0,26.41,SW,236,7.0,10.0,90,0.00,,,0.00,,2013-02-08 08:42:00,
2013-02-08 03:52:00,73.0,70.0,29.93,SW,233,8.0,12.0,90,0.00,,,0.00,,2013-02-08 08:52:00,
2013-02-08 04:03:00,73.0,70.0,29.94,WSW,240,7.0,12.0,90,0.00,,,0.00,,2013-02-08 09:03:00,
2013-02-08 04:11:00,73.0,70.0,29.94,WSW,240,7.0,12.0,90,0.00,,,0.00,,2013-02-08 09:11:00,
2013-02-08 04:21:00,73.0,70.0,29.93,WSW,237,10.0,13.0,90,0.00,,,0.00,,2013-02-08 09:21:00,
2013-02-08 04:32:00,73.0,70.0,29.94,SW,225,8.0,13.0,90,0.00,,,0.00,,2013-02-08 09:32:00,
2013-02-08 04:42:00,73.0,70.0,29.94,SW,225,8.0,13.0,90,0.00,,,0.00,,2013-02-08 09:42:00,
2013-02-08 04:52:00,73.0,70.0,26.42,WSW,240,11.0,15.0,90,0.00,,,0.00,,2013-02-08 09:52:00,
2013-02-08 05:01:00,73.0,70.0,29.93,WSW,246,10.0,13.0,90,0.00,,,0.00,,2013-02-08 10:01:00,
2013-02-08 05:12:00,73.0,70.0,29.93,WSW,246,10.0,13.0,90,0.00,,,0.00,,2013-02-08 10:12:00,
2013-02-08 05:22:00,73.0,70.0,29.93,West,269,13.0,16.0,90,0.00,,,0.00,,2013-02-08 10:22:00,
2013-02-08 05:32:00,73.0,70.0,29.93,WSW,244,12.0,15.0,91,0.00,,,0.00,,2013-02-08 10:32:00,
2013-02-08 05:42:00,73.0,70.0,29.93,WSW,244,12.0,15.0,91,0.00,,,0.00,,2013-02-08 10:42:00,
2013-02-08 05:52:00,73.0,70.0,29.94,WSW,258,11.0,15.0,91,0.00,,,0.00,,2013-02-08 10:52:00,
2013-02-08 06:01:00,73.0,70.0,29.94,WSW,258,9.0,13.0,91,0.00,,,0.00,,2013-02-08 11:01:00,
2013-02-08 06:11:00,73.0,70.0,29.94,WSW,258,9.0,13.0,91,0.00,,,0.00,,2013-02-08 11:11:00,
2013-02-08 06:21:00,73.0,71.0,29.95,WSW,258,9.0,12.0,92,0.00,,,0.00,,2013-02-08 11:21:00,
2013-02-08 06:32:00,73.0,71.0,29.95,West,263,8.0,12.0,92,0.00,,,0.00,,2013-02-08 11:32:00,
2013-02-08 06:42:00,73.0,71.0,29.95,West,263,8.0,12.0,92,0.00,,,0.00,,2013-02-08 11:42:00,
2013-02-08 06:52:00,73.0,71.0,29.96,West,272,7.0,11.0,93,0.00,,,0.00,,2013-02-08 11:52:00,
2013-02-08 07:02:00,73.0,71.0,29.97,West,273,4.0,7.0,93,0.00,,,0.00,,2013-02-08 12:02:00,
2013-02-08 07:11:00,73.0,71.0,29.97,West,273,4.0,7.0,93,0.00,,,0.00,,2013-02-08 12:11:00,
2013-02-08 07:22:00,73.0,71.0,29.98,West,268,5.0,7.0,93,0.00,,,0.00,,2013-02-08 12:22:00,
2013-02-08 07:33:00,73.0,71.0,26.41,West,270,4.0,6.0,93,0.00,,,0.00,,2013-02-08 12:33:00,
2013-02-08 07:42:00,73.0,71.0,26.41,West,270,4.0,6.0,93,0.00,,,0.00,,2013-02-08 12:42:00,
2013-02-08 07:52:00,73.0,71.0,29.98,West,269,4.0,6.0,93,0.00,,,0.00,,2013-02-08 12:52:00,
2013-02-08 08:02:00,73.0,71.0,29.99,West,267,4.0,7.0,93,0.00,,,0.00,,2013-02-08 13:02:00,
2013-02-08 08:12:00,73.0,71.0,29.99,West,267,4.0,7.0,93,0.00,,,0.00,,2013-02-08 13:12:00,
2013-02-08 08:22:00,73.0,71.0,29.98,West,261,9.0,11.0,94,0.00,,,0.00,,2013-02-08 13:22:00,
2013-02-08 08:32:00,73.0,71.0,29.98,WSW,258,9.0,13.0,94,0.00,,,0.00,,2013-02-08 13:32:00,
2013-02-08 08:42:00,73.0,71.0,29.98,WSW,258,9.0,13.0,94,0.00,,,0.00,,2013-02-08 13:42:00,
2013-02-08 08:52:00,74.0,71.0,29.99,West,264,10.0,15.0,91,0.00,,,0.00,,2013-02-08 13:52:00,
2013-02-08 09:02:00,75.0,73.0,30.00,West,266,12.0,16.0,93,0.00,,,0.00,,2013-02-08 14:02:00,
2013-02-08 09:11:00,75.0,73.0,30.00,West,266,12.0,16.0,93,0.00,,,0.00,,2013-02-08 14:11:00,
2013-02-08 09:22:00,76.0,74.0,30.02,West,267,11.0,16.0,92,0.00,,,0.00,,2013-02-08 14:22:00,
2013-02-08 09:32:00,76.0,73.0,30.02,WNW,297,11.0,14.0,90,0.00,,,0.00,,2013-02-08 14:32:00,
2013-02-08 09:42:00,76.0,73.0,30.02,WNW,297,11.0,14.0,90,0.00,,,0.00,,2013-02-08 14:42:00,
2013-02-08 09:52:00,77.0,72.0,30.03,West,280,11.0,18.0,86,0.00,,,0.00,,2013-02-08 14:52:00,
2013-02-08 10:02:00,77.0,72.0,30.03,WNW,285,8.0,15.0,85,0.00,,,0.00,,2013-02-08 15:02:00,
2013-02-08 10:12:00,77.0,72.0,30.03,WNW,285,8.0,15.0,85,0.00,,,0.00,,2013-02-08 15:12:00,
2013-02-08 10:22:00,78.0,72.0,30.04,NW,307,5.0,11.0,82,0.00,,,0.00,,2013-02-08 15:22:00,
2013-02-08 10:32:00,78.0,72.0,30.04,NW,304,2.0,7.0,81,0.00,,,0.00,,2013-02-08 15:32:00,
2013-02-08 10:42:00,78.0,72.0,30.04,NW,304,2.0,7.0,81,0.00,,,0.00,,2013-02-08 15:42:00,
2013-02-08 10:52:00,77.0,71.0,30.04,NW,311,3.0,5.0,83,0.00,,,0.00,,2013-02-08 15:52:00,
2013-02-08 11:01:00,77.0,71.0,30.05,NW,308,4.0,6.0,82,0.00,,,0.00,,2013-02-08 16:01:00,
2013-02-08 11:11:00,77.0,71.0,30.05,NW,308,4.0,6.0,82,0.00,,,0.00,,2013-02-08 16:11:00,
2013-02-08 11:22:00,77.0,71.0,30.04,WNW,302,3.0,7.0,83,0.00,,,0.00,,2013-02-08 16:22:00,
2013-02-08 11:32:00,78.0,72.0,30.04,WNW,298,6.0,10.0,82,0.00,,,0.00,,2013-02-08 16:32:00,
2013-02-08 11:42:00,78.0,72.0,30.04,WNW,298,6.0,10.0,82,0.00,,,0.00,,2013-02-08 16:42:00,
2013-02-08 11:52:00,79.0,72.0,30.03,NW,308,6.0,11.0,78,0.00,,,0.00,,2013-02-08 16:52:00,
2013-02-08 12:03:00,79.0,72.0,30.03,WNW,301,5.0,10.0,79,0.00,,,0.00,,2013-02-08 17:03:00,
2013-02-08 12:12:00,79.0,72.0,30.03,WNW,301,5.0,10.0,79,0.00,,,0.00,,2013-02-08 17:12:00,
2013-02-08 12:23:00,78.0,72.0,30.04,NW,306,5.0,9.0,81,0.00,,,0.00,,2013-02-08 17:23:00,
2013-02-08 12:32:00,78.0,72.0,30.04,NW,305,5.0,8.0,81,0.00,,,0.00,,2013-02-08 17:32:00,
2013-02-08 12:42:00,78.0,72.0,30.04,NW,305,5.0,8.0,81,0.00,,,0.00,,2013-02-08 17:42:00,
2013-02-08 12:53:00,80.0,71.0,30.03,WNW,288,8.0,16.0,74,0.00,,,0.00,,2013-02-08 17:53:00,
2013-02-08 13:02:00,80.0,71.0,30.03,WNW,298,5.0,12.0,75,0.00,,,0.00,,2013-02-08 18:02:00,
2013-02-08 13:12:00,80.0,71.0,30.03,WNW,298,5.0,12.0,75,0.00,,,0.00,,2013-02-08 18:12:00,
2013-02-08 13:24:00,79.0,72.0,30.03,WNW,294,6.0,11.0,78,0.00,,,0.00,,2013-02-08 18:24:00,
2013-02-08 13:35:00,79.0,72.0,30.03,WNW,303,5.0,11.0,78,0.00,,,0.00,,2013-02-08 18:35:00,
2013-02-08 13:43:00,79.0,72.0,30.03,WNW,303,5.0,11.0,78,0.00,,,0.00,,2013-02-08 18:43:00,
2013-02-08 13:53:00,79.0,71.0,26.41,WNW,298,5.0,11.0,76,0.00,,,0.00,,2013-02-08 18:53:00,
2013-02-08 14:02:00,79.0,71.0,26.41,NW,304,4.0,10.0,76,0.00,,,0.00,,2013-02-08 19:02:00,
2013-02-08 14:11:00,79.0,71.0,26.41,NW,304,4.0,10.0,76,0.00,,,0.00,,2013-02-08 19:11:00,
2013-02-08 14:22:00,79.0,71.0,30.00,WNW,296,4.0,7.0,77,0.00,,,0.00,,2013-02-08 19:22:00,
2013-02-08 14:32:00,79.0,71.0,30.00,NW,316,4.0,7.0,77,0.00,,,0.00,,2013-02-08 19:32:00,
2013-02-08 14:42:00,79.0,71.0,30.00,NW,316,4.0,7.0,77,0.00,,,0.00,,2013-02-08 19:42:00,
2013-02-08 14:52:00,78.0,71.0,30.00,NW,310,4.0,9.0,78,0.00,,,0.00,,2013-02-08 19:52:00,
2013-02-08 15:02:00,78.0,71.0,30.00,NW,315,6.0,9.0,78,0.00,,,0.00,,2013-02-08 20:02:00,
2013-02-08 15:12:00,78.0,71.0,30.00,NW,315,6.0,9.0,78,0.00,,,0.00,,2013-02-08 20:12:00,
2013-02-08 15:22:00,78.0,71.0,30.00,NW,318,7.0,10.0,78,0.00,,,0.00,,2013-02-08 20:22:00,
2013-02-08 15:32:00,77.0,70.0,29.99,NW,308,7.0,10.0,78,0.00,,,0.00,,2013-02-08 20:32:00,
2013-02-08 15:42:00,77.0,70.0,29.99,NW,308,7.0,10.0,78,0.00,,,0.00,,2013-02-08 20:42:00,
2013-02-08 15:52:00,78.0,71.0,29.98,NW,306,7.0,11.0,78,0.00,,,0.00,,2013-02-08 20:52:00,
2013-02-08 16:02:00,78.0,70.0,29.98,WNW,303,6.0,11.0,77,0.00,,,0.00,,2013-02-08 21:02:00,
2013-02-08 16:12:00,78.0,70.0,29.98,WNW,303,6.0,11.0,77,0.00,,,0.00,,2013-02-08 21:12:00,
2013-02-08 16:22:00,78.0,71.0,29.98,WNW,303,6.0,10.0,78,0.00,,,0.00,,2013-02-08 21:22:00,
2013-02-08 16:32:00,78.0,70.0,29.98,NW,316,7.0,11.0,77,0.00,,,0.00,,2013-02-08 21:32:00,
2013-02-08 16:42:00,78.0,70.0,29.98,NW,316,7.0,11.0,77,0.00,,,0.00,,2013-02-08 21:42:00,
2013-02-08 16:52:00,78.0,71.0,29.98,NW,308,7.0,11.0,78,0.00,,,0.00,,2013-02-08 21:52:00,
2013-02-08 17:02:00,77.0,70.0,29.98,NW,308,7.0,11.0,79,0.00,,,0.00,,2013-02-08 22:02:00,
2013-02-08 17:11:00,77.0,70.0,29.98,NW,308,7.0,11.0,79,0.00,,,0.00,,2013-02-08 22:11:00,
2013-02-08 17:22:00,77.0,70.0,29.98,NNW,329,7.0,14.0,80,0.00,,,0.00,,2013-02-08 22:22:00,
2013-02-08 17:32:00,76.0,70.0,29.98,NW,317,5.0,14.0,81,0.00,,,0.00,,2013-02-08 22:32:00,
2013-02-08 17:42:00,76.0,70.0,29.98,NW,317,5.0,14.0,81,0.00,,,0.00,,2013-02-08 22:42:00,
2013-02-08 17:52:00,76.0,70.0,29.98,NNW,342,11.0,18.0,83,0.00,,,0.00,,2013-02-08 22:52:00,
2013-02-08 18:01:00,76.0,70.0,29.99,NNW,346,10.0,15.0,83,0.00,,,0.00,,2013-02-08 23:01:00,
2013-02-08 18:11:00,76.0,70.0,29.99,NNW,346,10.0,15.0,83,0.00,,,0.00,,2013-02-08 23:11:00,
2013-02-08 18:22:00,75.0,71.0,29.99,NNW,348,11.0,18.0,86,0.00,,,0.00,,2013-02-08 23:22:00,
2013-02-08 18:32:00,75.0,71.0,29.99,NNW,342,13.0,17.0,87,0.00,,,0.00,,2013-02-08 23:32:00,
2013-02-08 18:42:00,75.0,71.0,29.99,NNW,342,13.0,17.0,87,0.00,,,0.00,,2013-02-08 23:42:00,
2013-02-08 18:52:00,74.0,70.0,30.00,NNW,344,11.0,19.0,88,0.00,,,0.00,,2013-02-08 23:52:00,
2013-02-08 19:02:00,74.0,71.0,26.41,NW,326,13.0,18.0,89,0.00,,,0.00,,2013-02-09 00:02:00,
2013-02-08 19:11:00,74.0,71.0,26.41,NW,326,13.0,18.0,89,0.00,,,0.00,,2013-02-09 00:11:00,
2013-02-08 19:22:00,74.0,71.0,30.01,NNW,345,10.0,16.0,89,0.00,,,0.00,,2013-02-09 00:22:00,
2013-02-08 19:32:00,74.0,71.0,30.01,NNW,342,11.0,15.0,89,0.00,,,0.00,,2013-02-09 00:32:00,
2013-02-08 19:42:00,74.0,71.0,30.01,NNW,342,11.0,15.0,89,0.00,,,0.00,,2013-02-09 00:42:00,
2013-02-08 19:52:00,73.0,70.0,30.01,NNW,339,6.0,11.0,91,0.00,,,0.00,,2013-02-09 00:52:00,
2013-02-08 20:01:00,73.0,70.0,30.01,NNW,341,1.0,11.0,90,0.00,,,0.00,,2013-02-09 01:01:00,
2013-02-08 20:11:00,73.0,70.0,30.01,NNW,341,1.0,11.0,90,0.00,,,0.00,,2013-02-09 01:11:00,
2013-02-08 20:22:00,73.0,70.0,30.01,NW,308,3.0,6.0,90,0.00,,,0.00,,2013-02-09 01:22:00,
2013-02-08 20:32:00,73.0,70.0,30.01,NW,317,2.0,7.0,90,0.00,,,0.00,,2013-02-09 01:32:00,
2013-02-08 20:42:00,73.0,70.0,30.01,NW,317,2.0,7.0,90,0.00,,,0.00,,2013-02-09 01:42:00,
2013-02-08 20:52:00,74.0,71.0,30.02,NW,306,4.0,10.0,89,0.00,,,0.00,,2013-02-09 01:52:00,
2013-02-08 21:01:00,74.0,71.0,30.02,NNW,327,4.0,9.0,89,0.00,,,0.00,,2013-02-09 02:01:00,
2013-02-08 21:11:00,74.0,71.0,30.03,NW,320,2.0,9.0,89,0.00,,,0.00,,2013-02-09 02:11:00,
2013-02-08 21:21:00,74.0,71.0,30.03,NW,320,2.0,9.0,89,0.00,,,0.00,,2013-02-09 02:21:00,
2013-02-08 21:32:00,74.0,71.0,30.03,NW,306,3.0,8.0,89,0.00,,,0.00,,2013-02-09 02:32:00,
2013-02-08 21:42:00,74.0,71.0,30.03,NW,306,3.0,8.0,89,0.00,,,0.00,,2013-02-09 02:42:00,
2013-02-08 21:53:00,73.0,69.0,30.03,NW,304,2.0,10.0,88,0.00,,,0.00,,2013-02-09 02:53:00,
2013-02-08 22:02:00,73.0,69.0,30.03,NW,310,4.0,10.0,87,0.00,,,0.00,,2013-02-09 03:02:00,
2013-02-08 22:11:00,73.0,69.0,30.03,NW,310,4.0,10.0,87,0.00,,,0.00,,2013-02-09 03:11:00,
2013-02-08 22:22:00,73.0,69.0,30.03,NW,317,4.0,10.0,87,0.00,,,0.00,,2013-02-09 03:22:00,
2013-02-08 22:32:00,73.0,69.0,30.03,NNW,333,4.0,11.0,87,0.00,,,0.00,,2013-02-09 03:32:00,
2013-02-08 22:42:00,73.0,69.0,30.03,NNW,333,4.0,11.0,87,0.00,,,0.00,,2013-02-09 03:42:00,
2013-02-08 22:53:00,73.0,69.0,26.41,NW,313,4.0,12.0,86,0.00,,,0.00,,2013-02-09 03:53:00,
2013-02-08 23:03:00,73.0,69.0,30.03,NNW,343,9.0,13.0,86,0.00,,,0.00,,2013-02-09 04:03:00,
2013-02-08 23:12:00,73.0,69.0,30.03,NNW,348,9.0,17.0,87,0.00,,,0.00,,2013-02-09 04:12:00,
2013-02-08 23:23:00,73.0,69.0,30.03,NNW,348,9.0,17.0,87,0.00,,,0.00,,2013-02-09 04:23:00,
2013-02-08 23:32:00,73.0,69.0,30.03,NNW,348,9.0,16.0,87,0.00,,,0.00,,2013-02-09 04:32:00,
2013-02-08 23:42:00,73.0,69.0,30.03,NNW,348,9.0,16.0,87,0.00,,,0.00,,2013-02-09 04:42:00,
2013-02-08 23:52:00,72.0,67.0,30.03,NW,325,7.0,13.0,84,0.00,,,0.00,,2013-02-09 04:52:00,